Cleveland Cuyahoga, OH

8:00 PM EDT on August 22, 2017 (GMT -0400)
Cuyahoga County

Weather History for KCGF - February, 2014

Change the Weather History Date:

Saturday, February 15, 2014

  Actual Average Record
Temperature  
Mean Temperature 16 °F -  
Max Temperature 23 °F 35 °F 62 °F (2005)
Min Temperature 10 °F 24 °F -4 °F (2015)
Degree Days  
Heating Degree Days 48    
Moisture  
Dew Point 10 °F    
Average Humidity 77    
Maximum Humidity 86    
Minimum Humidity 68    
Precipitation  
Precipitation 0.00 in - - ()
Sea Level Pressure  
Sea Level Pressure 29.99 in    
Wind  
Wind Speed 14 mph (WNW)    
Max Wind Speed 17 mph    
Max Gust Speed 18 mph    
Visibility 10 miles    
Events Snow    
Averages and records for this station are not official NWS values.
T = Trace of Precipitation, MM = Missing Value Source: NWS Daily Summary

Daily Weather History Graph

Daily Weather History Graph

Search for Another Location

Airport or City:

Trip Planner

Search our weather history database for the weather conditions in past years. The results will help you decide how hot, cold, wet, or windy it might be!

Date:

Astronomy

Feb. 15, 2014 Rise Set
Actual Time 7:21 AM EST 5:59 PM EST
Civil Twilight 6:52 AM EST 6:28 PM EST
Nautical Twilight 6:20 AM EST 7:00 PM EST
Astronomical Twilight 5:48 AM EST 7:32 PM EST
Moon 6:59 PM EST (2/15) 7:18 AM EST (2/15)
Length of Visible Light 11h 35m
Length of Day
10h 38m
Full, 100% of the Moon is Illuminated
Feb 15
Full
Feb 22
Last Quarter
Mar 1
New
Mar 8
First Quarter
Mar 16
Full

Hourly Weather History & Observations

Time (EST) Temp. Windchill Dew Point Humidity Pressure Visibility Wind Dir Wind Speed Gust Speed Precip Events Conditions
6:45 AM 23.0 °F 9.2 °F 19.4 °F 86% 29.84 in 4.0 mi NNW 17.3 mph - N/A Snow Light Snow
7:45 AM 23.0 °F 10.6 °F 17.6 °F 80% 29.88 in 6.0 mi NNW 13.8 mph - N/A Snow Light Snow Showers
8:35 AM 21.2 °F 7.3 °F 15.8 °F 80% 29.91 in 6.0 mi North 16.1 mph - N/A Snow Light Snow Showers
8:45 AM 19.4 °F 6.0 °F 15.8 °F 86% 29.92 in 6.0 mi NNW 13.8 mph - N/A Snow Light Snow
9:45 AM 15.8 °F 0.3 °F 12.2 °F 86% 29.95 in 5.0 mi NW 16.1 mph - N/A Snow Light Snow
10:45 AM 15.8 °F 4.2 °F 12.2 °F 86% 29.96 in 2.0 mi NW 9.2 mph - N/A Snow Light Snow
11:45 AM 14.0 °F -1.4 °F 6.8 °F 73% 29.98 in 4.0 mi NW 15.0 mph - N/A Snow Light Snow
12:45 PM 15.8 °F 0.3 °F 6.8 °F 68% 29.97 in 7.0 mi WNW 16.1 mph - N/A   Mostly Cloudy
1:45 PM 15.8 °F 0.3 °F 6.8 °F 68% 29.98 in 5.0 mi WNW 16.1 mph - N/A Snow Light Snow
2:45 PM 17.6 °F 2.7 °F 10.4 °F 73% 30.00 in 3.0 mi WNW 16.1 mph - N/A Snow Light Snow
3:13 PM 17.6 °F 5.0 °F 10.4 °F 73% 30.00 in 4.0 mi WNW 11.5 mph - N/A Snow Light Snow
3:45 PM 15.8 °F 2.7 °F 8.6 °F 73% 30.01 in 7.0 mi West 11.5 mph - N/A Snow Light Snow
4:45 PM 15.8 °F 3.4 °F 6.8 °F 68% 30.03 in 12.0 mi WNW 10.4 mph 18.4 mph N/A Snow Light Snow
5:45 PM 15.8 °F 2.1 °F 6.8 °F 68% 30.04 in 15.0 mi WNW 12.7 mph - N/A   Clear
6:45 PM 10.4 °F -1.5 °F 5.0 °F 79% 30.06 in 20.0 mi West 8.1 mph - N/A   Clear
7:45 PM 12.2 °F 2.9 °F 6.8 °F 79% 30.07 in 20.0 mi West 5.8 mph - N/A   Clear
8:45 PM 10.4 °F 0.8 °F 3.2 °F 73% 30.06 in 20.0 mi South 5.8 mph - N/A   Clear
9:45 PM 10.4 °F 0.8 °F 5.0 °F 79% 30.05 in 20.0 mi South 5.8 mph - N/A   Scattered Clouds
10:45 PM 10.4 °F -4.1 °F 6.8 °F 85% 30.06 in 20.0 mi South 11.5 mph - N/A   Scattered Clouds